THOR ABLESTAR DEB, 1504

Orbit data source: Space-Track

THOR ABLESTAR DEB, 1504 is space debris in LEO originally from a launch on Fri, 13 Aug 1965 UTC launched from the Air Force Western Test Range (AFWTR). Debris objects in space refer to the collection of defunct objects orbiting the Earth. Examples of debris include non-operational satellites, rocket bodies, and fragments generated from explosions, collisions, or faulty payload assembly.

Loading next visibility...
Identifier
1504, 1965-065A
Orbit
LEO
Country
Flag of USUS
Related business
Manufacturer
NRL
Mission
Spacecraft
Bus & Motor
Unknown
Mass
Unknown
Launch date (UTC)
1965-08-13 (60 years ago)
Launch vehicle
Unknown
Launch site
Air Force Western Test Range (AFWTR)
Object type
Payload
Rocket body
Debris
Shape & HBR
Unknown
Radar Cross Section
Small (<0.1 m²)

Expand to show TLE details & history
Last TLE update: 16 hours ago

TLE from 16 hours ago
0 THOR ABLESTAR DEB
1 01504U 65065A   25260.96976831  .00000199  00000-0  34409-3 0  9998
2 01504  89.9443 242.8285 0064112 271.8578 143.8867 13.40279318931246
Epoch: 2025-09-17T23:16Z
TLE epoch observation values (Epoch: 2025-09-17T23:16:27.981Z)
Latitude
56.26677°
Longitude
-103.34318°
Altitude
1,156.588 km
Speed
7.261 km/s
True Right ascension
16h 11m 38s
True Declination
56° 06' 58"
Sunlit
Object was in daylight at epoch
Visualization orbit readout
Latitude
Unknown
Longitude
Unknown
Altitude
Unknown
Speed
Unknown
Apparent Right ascension
Unknown
Apparent Declination
Unknown
Sunlit
N/A
Visualization observer readout
Local Sidereal Time
08:20:24
Azimuth
Unknown
Elevation
Unknown
Doppler factor
Unknown
Orbital elements
Apogee altitude
1,153.281 km
Perigee altitude
1,057.325 km
Semi-major axis
7,483.44 km
Eccentricity
0.00641
Inclination
89.9443°
RAAN
242.8285°
Arg. of periapsis
271.8578°
True anomaly
144.31691°
Mean anomaly
143.8867°
Eccentric anomaly
144.10208°
Mean motion
3.35267 °/min
Orbital period
107.38 mins
BSTAR
0.00034409
Loading maneuver chart data...
Computing Atmospheric mass density...
Loading historical data...
Loading historical data...
Loading historical data...
Loading historical data...
Loading historical data...
Loading historical data...
Loading historical data...

Documentation

Showing up to 5 results
|